TimeMDT,TemperatureF,Dew PointF,Humidity,Sea Level PressureIn,VisibilityMPH,Wind Direction,Wind SpeedMPH,Gust SpeedMPH,PrecipitationIn,Events,Conditions,WindDirDegrees,DateUTC
12:53 AM,46.0,23.0,40,29.76,10.0,South,8.1,-,N/A,,Clear,190,2013-05-26 06:53:00
1:53 AM,37.9,24.1,57,29.79,10.0,WSW,10.4,-,N/A,,Clear,240,2013-05-26 07:53:00
2:53 AM,42.1,25.0,51,29.78,-9999.0,South,9.2,-,N/A,,Clear,180,2013-05-26 08:53:00
3:53 AM,39.0,25.0,57,29.79,-9999.0,South,5.8,-,N/A,,Clear,190,2013-05-26 09:53:00
4:53 AM,37.9,24.1,57,29.79,-9999.0,South,10.4,-,N/A,,Clear,180,2013-05-26 10:53:00
5:53 AM,37.0,26.1,65,29.82,-9999.0,South,9.2,-,N/A,,Clear,190,2013-05-26 11:53:00
6:53 AM,37.9,25.0,60,29.82,-9999.0,South,8.1,-,N/A,,Clear,190,2013-05-26 12:53:00
7:53 AM,39.0,27.0,62,29.86,-9999.0,North,-9999.0,-,N/A,,Clear,0,2013-05-26 13:53:00
8:53 AM,57.9,30.9,36,29.79,10.0,SW,9.2,-,N/A,,Clear,230,2013-05-26 14:53:00
9:53 AM,68.0,26.1,21,29.78,10.0,SW,13.8,-,N/A,,Clear,220,2013-05-26 15:53:00
10:53 AM,71.1,18.0,13,29.77,10.0,Variable,4.6,18.4,N/A,,Clear,0,2013-05-26 16:53:00
11:53 AM,73.0,15.1,11,29.74,10.0,SSW,15.0,24.2,N/A,,Clear,210,2013-05-26 17:53:00
12:53 PM,73.9,16.0,11,29.74,10.0,WSW,12.7,18.4,N/A,,Clear,250,2013-05-26 18:53:00
1:53 PM,73.9,17.1,12,29.75,10.0,SW,15.0,24.2,N/A,,Clear,220,2013-05-26 19:53:00
2:53 PM,75.9,16.0,10,29.71,10.0,SW,11.5,18.4,N/A,,Clear,220,2013-05-26 20:53:00
3:38 PM,69.8,37.4,31,30.00,10.0,SE,19.6,25.3,N/A,,Clear,130,2013-05-26 21:38:00
3:53 PM,68.0,36.0,31,29.76,10.0,SE,21.9,27.6,N/A,,Clear,140,2013-05-26 21:53:00
4:53 PM,66.9,37.0,33,29.77,10.0,SE,13.8,-,N/A,,Clear,140,2013-05-26 22:53:00
5:53 PM,66.9,33.1,28,29.76,10.0,SSE,18.4,24.2,N/A,,Clear,150,2013-05-26 23:53:00
6:53 PM,66.0,28.0,24,29.76,10.0,SSE,12.7,23.0,N/A,,Clear,150,2013-05-27 00:53:00
7:53 PM,63.0,28.9,28,29.77,10.0,South,8.1,-,N/A,,Clear,190,2013-05-27 01:53:00
8:53 PM,57.0,26.1,30,29.72,10.0,South,8.1,-,N/A,,Clear,170,2013-05-27 02:53:00
9:53 PM,53.1,30.0,41,29.70,10.0,SSW,10.4,-,N/A,,Clear,200,2013-05-27 03:53:00
10:53 PM,50.0,32.0,50,29.70,10.0,South,10.4,-,N/A,,Clear,170,2013-05-27 04:53:00
11:53 PM,46.0,30.9,56,29.70,10.0,SSW,5.8,-,N/A,,Clear,210,2013-05-27 05:53:00